Arden, NC

3:36 PM EST on December 07, 2016 (GMT -0500)
Asheville Regional

Weather History for KAVL - January, 2014

Change the Weather History Date:

Monday, January 6, 2014

  Actual Average Record
Temperature  
Mean Temperature 24 °F 37 °F  
Max Temperature 45 °F 47 °F 69 °F (1907)
Min Temperature 2 °F 27 °F -5 °F (1924)
Degree Days  
Heating Degree Days 41 28  
Month to date heating degree days 204 168  
Since 1 July heating degree days 1784 1829  
Cooling Degree Days 0 0  
Month to date cooling degree days 0 0  
Year to date cooling degree days 0 0  
Moisture  
Dew Point 19 °F    
Average Humidity 74    
Maximum Humidity 100    
Minimum Humidity 48    
Precipitation  
Precipitation 0.07 in 0.12 in 1.51 in (1995)
Month to date precipitation 0.14 0.67  
Year to date precipitation 0.14 0.67  
Snow  
Snow T in 0.10 in 5.70 in (1996)
Month to date snowfall 0.2 0.7  
Since 1 July snowfall 0.4 1.7  
Snow Depth 0.00 in    
Sea Level Pressure  
Sea Level Pressure 29.87 in    
Wind  
Wind Speed 19 mph (NNW)    
Max Wind Speed 29 mph    
Max Gust Speed 38 mph    
Visibility 10 miles    
Events Rain , Snow    
T = Trace of Precipitation, MM = Missing Value Source: NWS Daily Summary

Daily Weather History Graph

Daily Weather History Graph

Search for Another Location

Airport or City:

Trip Planner

Search our weather history database for the weather conditions in past years. The results will help you decide how hot, cold, wet, or windy it might be!

Date:

Astronomy

Jan. 06, 2014 Rise Set
Actual Time 7:39 AM EST 5:32 PM EST
Civil Twilight 7:11 AM EST 6:00 PM EST
Nautical Twilight 6:40 AM EST 6:32 PM EST
Astronomical Twilight 6:09 AM EST 7:03 PM EST
Moon 11:08 AM EST (1/6) 11:49 PM EST (1/6)
Length of Visible Light 10h 48m
Length of Day
9h 52m
Waxing Crescent, 34% of the Moon is Illuminated
Jan 6
Waxing Crescent
Jan 7
First Quarter
Jan 15
Full
Jan 24
Last Quarter
Jan 30
New

Hourly Weather History & Observations

Time (EST) Temp. Windchill Dew Point Humidity Pressure Visibility Wind Dir Wind Speed Gust Speed Precip Events Conditions
12:11 AM 44.6 °F 37.4 °F 42.8 °F 93% 29.69 in 7.0 mi South 16.1 mph 25.3 mph 0.00 in Rain Light Rain
12:20 AM 44.6 °F 37.8 °F 42.8 °F 93% 29.70 in 8.0 mi SW 15.0 mph 24.2 mph 0.01 in Rain Light Rain
12:54 AM 44.1 °F 36.2 °F 42.1 °F 93% 29.66 in 10.0 mi SSW 18.4 mph 26.5 mph 0.03 in Rain Light Rain
1:02 AM 44.6 °F 36.9 °F 41.0 °F 87% 29.67 in 10.0 mi SSW 18.4 mph 26.5 mph 0.00 in   Overcast
1:45 AM 42.8 °F 35.8 °F 42.8 °F 100% 29.67 in 6.0 mi South 13.8 mph - 0.02 in Rain Rain
1:54 AM 43.0 °F 37.7 °F 42.1 °F 97% 29.66 in 9.0 mi South 9.2 mph 20.7 mph 0.03 in Rain Light Rain
2:51 AM 44.6 °F 38.8 °F 42.8 °F 93% 29.69 in 10.0 mi North 11.5 mph 18.4 mph 0.01 in   Overcast
2:54 AM 44.1 °F 37.4 °F 41.0 °F 89% 29.69 in 10.0 mi North 13.8 mph - 0.01 in   Overcast
3:06 AM 42.8 °F 34.8 °F 39.2 °F 87% 29.70 in 10.0 mi NNW 17.3 mph 24.2 mph N/A   Overcast
3:24 AM 39.2 °F 29.3 °F 37.4 °F 93% 29.69 in 10.0 mi North 20.7 mph 26.5 mph 0.00 in Rain Light Rain
3:38 AM 37.4 °F 26.6 °F 35.6 °F 93% 29.70 in 10.0 mi North 21.9 mph 32.2 mph 0.00 in Rain Light Rain
3:54 AM 37.0 °F 27.0 °F 34.0 °F 89% 29.70 in 10.0 mi North 18.4 mph 27.6 mph 0.00 in   Overcast
4:52 AM 33.8 °F 21.6 °F 28.4 °F 81% 29.71 in 10.0 mi North 23.0 mph 34.5 mph N/A   Overcast
4:54 AM 33.1 °F 20.3 °F 28.9 °F 85% 29.73 in 10.0 mi North 24.2 mph 34.5 mph N/A   Overcast
5:03 AM 33.8 °F 21.6 °F 28.4 °F 81% 29.72 in 10.0 mi North 23.0 mph 33.4 mph N/A   Mostly Cloudy
5:54 AM 30.0 °F 16.6 °F 24.1 °F 79% 29.76 in 10.0 mi North 23.0 mph 36.8 mph N/A   Mostly Cloudy
6:05 AM 28.4 °F 15.8 °F 24.8 °F 86% 29.76 in 10.0 mi North 18.4 mph 34.5 mph N/A   Mostly Cloudy
6:54 AM 27.0 °F 12.2 °F 21.9 °F 81% 29.81 in 10.0 mi North 24.2 mph 31.1 mph N/A   Overcast
7:54 AM 24.1 °F 8.3 °F 18.0 °F 77% 29.84 in 10.0 mi North 24.2 mph 34.5 mph 0.00 in   Partly Cloudy
8:21 AM 24.8 °F 9.3 °F 17.6 °F 74% 29.84 in 10.0 mi NNW 24.2 mph 35.7 mph N/A   Mostly Cloudy
8:54 AM 23.0 °F 8.7 °F 17.1 °F 78% 29.90 in 9.0 mi North 18.4 mph 25.3 mph 0.00 in Snow Light Snow
9:15 AM 21.2 °F 6.4 °F 17.6 °F 86% 29.88 in 10.0 mi North 18.4 mph 24.2 mph 0.00 in   Scattered Clouds
9:54 AM 24.1 °F 10.6 °F 15.1 °F 69% 29.91 in 10.0 mi North 17.3 mph 27.6 mph 0.00 in   Clear
10:54 AM 25.0 °F 10.9 °F 10.9 °F 55% 29.94 in 10.0 mi North 19.6 mph 34.5 mph N/A   Clear
11:54 AM 24.1 °F 9.4 °F 12.0 °F 60% 29.93 in 10.0 mi NNW 20.7 mph 28.8 mph N/A   Clear
12:54 PM 24.1 °F 11.0 °F 10.9 °F 57% 29.92 in 10.0 mi North 16.1 mph 25.3 mph N/A   Mostly Cloudy
1:02 PM 24.8 °F 11.1 °F 12.2 °F 59% 29.90 in 10.0 mi North 18.4 mph 24.2 mph N/A   Scattered Clouds
1:54 PM 24.1 °F 12.0 °F 12.0 °F 60% 29.92 in 9.0 mi North 13.8 mph 23.0 mph 0.00 in   Overcast
2:54 PM 21.0 °F 4.6 °F 8.1 °F 57% 29.95 in 10.0 mi North 23.0 mph 27.6 mph N/A   Overcast
3:54 PM 17.1 °F 1.5 °F 3.0 °F 54% 30.01 in 10.0 mi North 17.3 mph 27.6 mph N/A   Partly Cloudy
4:54 PM 12.9 °F -6.5 °F -4.0 °F 47% 30.06 in 10.0 mi NNW 24.2 mph 33.4 mph N/A   Clear
5:54 PM 9.0 °F -9.0 °F -6.0 °F 51% 30.10 in 10.0 mi North 17.3 mph 27.6 mph N/A   Clear
6:54 PM 8.1 °F -11.2 °F -7.1 °F 50% 30.15 in 10.0 mi NNW 19.6 mph 26.5 mph N/A   Clear
7:54 PM 7.0 °F -10.4 °F -7.1 °F 53% 30.19 in 10.0 mi NNW 15.0 mph 24.2 mph N/A   Clear
8:54 PM 6.1 °F -14.3 °F -7.1 °F 55% 30.22 in 10.0 mi NNW 20.7 mph 32.2 mph N/A   Clear
9:54 PM 3.9 °F -15.6 °F -9.0 °F 55% 30.24 in 10.0 mi NNW 17.3 mph 27.6 mph N/A   Clear
10:54 PM 3.9 °F -14.3 °F -9.0 °F 55% 30.22 in 10.0 mi North 15.0 mph 31.1 mph N/A   Clear
11:54 PM 3.0 °F -15.5 °F -9.0 °F 57% 30.25 in 10.0 mi North 15.0 mph 26.5 mph N/A   Clear